User: anonymous   Login
Location: Newark
(54.2500°N, 9.1833°E)
Time: 13:45:52
(UTC+00:00)
Language:

S-56A Canister/Altair - Orbit

View from above orbital plane
View from above orbital plane
View from above satellite
View from above satellite

Ground track
Ground track

The orbit data is extracted from the following two-line orbital elements,

1    82U 61004B   19341.88021599 -.00000002 +00000-0 +22731-4 0  9993
2    82 038.8597 191.4312 1174902 234.1968 114.3882 12.26056473784170
Epoch (UTC): 07 December 2019 21:07:30
Eccentricity: 0.1174902
inclination: 38.8597°
perigee height: 633 km
apogee height: 2499 km
right ascension of ascending node: 191.4312°
argument of perigee: 234.1968°
revolutions per day: 12.26056473
mean anomaly at epoch: 114.3882°
orbit number at epoch: 78417

The dashed part of the orbit path shows where the satellite is in the earth's shadow,  

DLR